Time,TemperatureF,DewpointF,PressureIn,WindDirection,WindDirectionDegrees,WindSpeedMPH,WindSpeedGustMPH,Humidity,HourlyPrecipIn,Conditions,Clouds,dailyrainin,SolarRadiationWatts/m^2,SoftwareType,DateUTC
2013-02-15 00:00:00,38.2,28.2,29.56,East,90,7.0,13.0,67,0.00,,,0.00,0000,Weather View 32 v70,2013-02-15 05:00:00,
2013-02-15 00:05:00,38.2,27.4,29.56,East,96,5.0,13.0,65,0.00,,,0.00,0000,Weather View 32 v70,2013-02-15 05:05:00,
2013-02-15 00:10:00,38.2,27.4,29.56,East,96,6.0,13.0,65,0.00,,,0.00,0000,Weather View 32 v70,2013-02-15 05:10:00,
2013-02-15 00:15:00,37.7,27.0,29.56,East,90,8.0,13.0,65,0.00,,,0.00,0000,Weather View 32 v70,2013-02-15 05:15:00,
2013-02-15 00:20:00,37.9,26.8,29.56,East,96,8.0,13.0,64,0.00,,,0.00,0000,Weather View 32 v70,2013-02-15 05:20:00,
2013-02-15 00:25:00,37.7,27.0,29.56,East,90,8.0,11.0,65,0.00,,,0.00,0000,Weather View 32 v70,2013-02-15 05:25:00,
2013-02-15 00:30:00,37.5,26.8,29.55,East,96,4.0,11.0,65,0.00,,,0.00,0000,Weather View 32 v70,2013-02-15 05:30:00,
2013-02-15 00:35:00,37.5,26.8,29.56,East,90,4.0,11.0,65,0.00,,,0.00,0000,Weather View 32 v70,2013-02-15 05:35:00,
2013-02-15 00:40:00,37.4,26.7,29.56,East,96,6.0,11.0,65,0.00,,,0.00,0000,Weather View 32 v70,2013-02-15 05:40:00,
2013-02-15 00:45:00,37.5,26.8,29.56,East,90,6.0,11.0,65,0.00,,,0.00,0000,Weather View 32 v70,2013-02-15 05:45:00,
2013-02-15 00:50:00,37.7,27.0,29.56,East,90,5.0,11.0,65,0.00,,,0.00,0000,Weather View 32 v70,2013-02-15 05:50:00,
2013-02-15 00:55:00,38.1,27.3,29.55,East,90,8.0,11.0,65,0.00,,,0.00,0000,Weather View 32 v70,2013-02-15 05:55:00,
2013-02-15 01:00:00,38.2,27.0,29.55,East,90,9.0,12.0,64,0.00,,,0.00,0000,Weather View 32 v70,2013-02-15 06:00:00,
2013-02-15 01:05:00,38.3,26.8,29.55,East,90,4.0,13.0,63,0.00,,,0.00,0000,Weather View 32 v70,2013-02-15 06:05:00,
2013-02-15 01:10:00,38.5,27.0,29.55,East,90,5.0,13.0,63,0.00,,,0.00,0000,Weather View 32 v70,2013-02-15 06:10:00,
2013-02-15 01:15:00,38.5,27.0,29.54,East,90,7.0,13.0,63,0.00,,,0.00,0000,Weather View 32 v70,2013-02-15 06:15:00,
2013-02-15 01:20:00,38.7,26.8,29.56,East,90,7.0,13.0,62,0.00,,,0.00,0000,Weather View 32 v70,2013-02-15 06:20:00,
2013-02-15 01:25:00,38.8,26.9,29.54,East,90,8.0,13.0,62,0.00,,,0.00,0000,Weather View 32 v70,2013-02-15 06:25:00,
2013-02-15 01:30:00,38.8,26.5,29.55,East,96,9.0,13.0,61,0.00,,,0.00,0000,Weather View 32 v70,2013-02-15 06:30:00,
2013-02-15 01:35:00,38.8,26.5,29.55,East,90,8.0,16.0,61,0.00,,,0.00,0000,Weather View 32 v70,2013-02-15 06:35:00,
2013-02-15 01:40:00,38.7,26.8,29.55,East,90,8.0,16.0,62,0.00,,,0.00,0000,Weather View 32 v70,2013-02-15 06:40:00,
2013-02-15 01:45:00,38.2,27.0,29.55,East,90,12.0,16.0,64,0.00,,,0.00,0000,Weather View 32 v70,2013-02-15 06:45:00,
2013-02-15 01:50:00,38.1,27.3,29.54,East,90,11.0,16.0,65,0.00,,,0.00,0000,Weather View 32 v70,2013-02-15 06:50:00,
2013-02-15 01:55:00,38.1,27.7,29.54,East,90,6.0,16.0,66,0.00,,,0.00,0000,Weather View 32 v70,2013-02-15 06:55:00,
2013-02-15 02:00:00,37.8,27.8,29.54,East,90,11.0,16.0,67,0.00,,,0.00,0000,Weather View 32 v70,2013-02-15 07:00:00,
2013-02-15 02:05:00,38.1,28.1,29.54,East,90,6.0,18.0,67,0.00,,,0.00,0000,Weather View 32 v70,2013-02-15 07:05:00,
2013-02-15 02:10:00,38.3,28.6,29.54,East,96,13.0,18.0,68,0.00,,,0.00,0000,Weather View 32 v70,2013-02-15 07:10:00,
2013-02-15 02:15:00,38.1,28.8,29.55,East,90,7.0,18.0,69,0.00,,,0.00,0000,Weather View 32 v70,2013-02-15 07:15:00,
2013-02-15 02:20:00,38.1,28.8,29.54,East,90,9.0,18.0,69,0.00,,,0.00,0000,Weather View 32 v70,2013-02-15 07:20:00,
2013-02-15 02:25:00,37.9,28.7,29.53,East,90,5.0,18.0,69,0.00,,,0.00,0000,Weather View 32 v70,2013-02-15 07:25:00,
2013-02-15 02:30:00,37.8,28.9,29.54,East,90,7.0,18.0,70,0.00,,,0.00,0000,Weather View 32 v70,2013-02-15 07:30:00,
2013-02-15 02:35:00,37.7,28.8,29.54,East,90,5.0,18.0,70,0.00,,,0.00,0000,Weather View 32 v70,2013-02-15 07:35:00,
2013-02-15 02:40:00,37.6,28.7,29.54,East,90,9.0,18.0,70,0.00,,,0.00,0000,Weather View 32 v70,2013-02-15 07:40:00,
2013-02-15 02:45:00,37.4,29.2,29.54,East,90,8.0,18.0,72,0.00,,,0.00,0000,Weather View 32 v70,2013-02-15 07:45:00,
2013-02-15 02:50:00,37.2,29.3,29.54,East,90,10.0,18.0,73,0.00,,,0.00,0000,Weather View 32 v70,2013-02-15 07:50:00,
2013-02-15 02:55:00,37.0,29.2,29.54,East,90,9.0,18.0,73,0.00,,,0.00,0000,Weather View 32 v70,2013-02-15 07:55:00,
2013-02-15 03:00:00,36.9,29.4,29.54,East,90,10.0,18.0,74,0.00,,,0.00,0000,Weather View 32 v70,2013-02-15 08:00:00,
2013-02-15 03:05:00,36.8,29.3,29.54,East,90,9.0,18.0,74,0.00,,,0.00,0000,Weather View 32 v70,2013-02-15 08:05:00,
2013-02-15 03:10:00,36.5,29.6,29.55,East,90,9.0,18.0,76,0.00,,,0.00,0000,Weather View 32 v70,2013-02-15 08:10:00,
2013-02-15 03:15:00,36.3,29.4,29.54,East,90,9.0,16.0,76,0.00,,,0.00,0000,Weather View 32 v70,2013-02-15 08:15:00,
2013-02-15 03:20:00,36.4,29.2,29.54,East,84,11.0,16.0,75,0.00,,,0.00,0000,Weather View 32 v70,2013-02-15 08:20:00,
2013-02-15 03:25:00,36.4,29.2,29.54,East,90,8.0,16.0,75,0.00,,,0.00,0000,Weather View 32 v70,2013-02-15 08:25:00,
2013-02-15 03:30:00,36.3,29.1,29.54,East,90,7.0,16.0,75,0.00,,,0.00,0000,Weather View 32 v70,2013-02-15 08:30:00,
2013-02-15 03:35:00,36.1,29.0,29.54,East,96,6.0,16.0,75,0.00,,,0.00,0000,Weather View 32 v70,2013-02-15 08:35:00,
2013-02-15 03:40:00,36.3,28.8,29.53,East,90,4.0,16.0,74,0.00,,,0.00,0000,Weather View 32 v70,2013-02-15 08:40:00,
2013-02-15 03:45:00,36.1,28.6,29.53,East,90,4.0,16.0,74,0.00,,,0.00,0000,Weather View 32 v70,2013-02-15 08:45:00,
2013-02-15 03:50:00,35.9,29.1,29.53,East,90,5.0,16.0,76,0.00,,,0.00,0000,Weather View 32 v70,2013-02-15 08:50:00,
2013-02-15 03:55:00,35.9,29.4,29.54,East,90,4.0,16.0,77,0.00,,,0.00,0000,Weather View 32 v70,2013-02-15 08:55:00,
2013-02-15 04:00:00,36.7,28.5,29.55,East,90,5.0,16.0,72,0.00,,,0.00,0000,Weather View 32 v70,2013-02-15 09:00:00,
2013-02-15 04:05:00,36.8,27.9,29.54,East,96,4.0,15.0,70,0.00,,,0.00,0000,Weather View 32 v70,2013-02-15 09:05:00,
2013-02-15 04:10:00,36.4,27.8,29.55,East,90,5.0,15.0,71,0.00,,,0.00,0000,Weather View 32 v70,2013-02-15 09:10:00,
2013-02-15 04:15:00,36.1,28.0,29.55,East,90,4.0,15.0,72,0.00,,,0.00,0000,Weather View 32 v70,2013-02-15 09:15:00,
2013-02-15 04:20:00,35.9,28.4,29.56,East,90,5.0,14.0,74,0.00,,,0.00,0000,Weather View 32 v70,2013-02-15 09:20:00,
2013-02-15 04:25:00,35.9,28.7,29.56,East,96,6.0,14.0,75,0.00,,,0.00,0000,Weather View 32 v70,2013-02-15 09:25:00,
2013-02-15 04:30:00,35.8,28.6,29.56,East,90,7.0,12.0,75,0.00,,,0.00,0000,Weather View 32 v70,2013-02-15 09:30:00,
2013-02-15 04:35:00,35.6,29.1,29.56,East,90,7.0,12.0,77,0.00,,,0.00,0000,Weather View 32 v70,2013-02-15 09:35:00,
2013-02-15 04:40:00,35.4,29.2,29.56,East,90,7.0,10.0,78,0.00,,,0.00,0000,Weather View 32 v70,2013-02-15 09:40:00,
2013-02-15 04:45:00,35.2,29.4,29.56,East,90,6.0,10.0,79,0.00,,,0.00,0000,Weather View 32 v70,2013-02-15 09:45:00,
2013-02-15 04:50:00,35.4,29.5,29.56,East,90,4.0,10.0,79,0.00,,,0.00,0000,Weather View 32 v70,2013-02-15 09:50:00,
2013-02-15 04:55:00,35.2,29.4,29.56,East,90,6.0,10.0,79,0.00,,,0.00,0000,Weather View 32 v70,2013-02-15 09:55:00,
2013-02-15 05:00:00,35.4,29.5,29.56,East,90,4.0,10.0,79,0.00,,,0.00,0000,Weather View 32 v70,2013-02-15 10:00:00,
2013-02-15 05:05:00,35.2,29.4,29.56,East,90,5.0,10.0,79,0.00,,,0.00,0000,Weather View 32 v70,2013-02-15 10:05:00,
2013-02-15 05:10:00,35.1,29.3,29.56,East,90,3.0,10.0,79,0.00,,,0.00,0000,Weather View 32 v70,2013-02-15 10:10:00,
2013-02-15 05:15:00,34.9,29.0,29.56,East,90,5.0,10.0,79,0.00,,,0.00,0000,Weather View 32 v70,2013-02-15 10:15:00,
2013-02-15 05:20:00,35.4,29.5,29.55,East,90,5.0,10.0,79,0.00,,,0.00,0000,Weather View 32 v70,2013-02-15 10:20:00,
2013-02-15 05:25:00,35.5,29.3,29.55,East,90,4.0,10.0,78,0.00,,,0.00,0000,Weather View 32 v70,2013-02-15 10:25:00,
2013-02-15 05:30:00,35.7,29.2,29.55,East,90,6.0,10.0,77,0.00,,,0.00,0000,Weather View 32 v70,2013-02-15 10:30:00,
2013-02-15 05:35:00,35.7,29.2,29.55,East,90,7.0,10.0,77,0.00,,,0.00,0000,Weather View 32 v70,2013-02-15 10:35:00,
2013-02-15 05:40:00,36.1,29.3,29.55,East,90,7.0,11.0,76,0.00,,,0.00,0000,Weather View 32 v70,2013-02-15 10:40:00,
2013-02-15 05:45:00,36.0,29.5,29.54,East,84,12.0,13.0,77,0.00,,,0.00,0000,Weather View 32 v70,2013-02-15 10:45:00,
2013-02-15 05:50:00,36.6,30.0,29.55,East,90,7.0,15.0,77,0.00,,,0.00,0000,Weather View 32 v70,2013-02-15 10:50:00,
2013-02-15 05:55:00,36.4,29.8,29.55,East,90,6.0,15.0,77,0.00,,,0.00,0000,Weather View 32 v70,2013-02-15 10:55:00,
2013-02-15 06:00:00,36.3,29.7,29.55,East,90,5.0,15.0,77,0.00,,,0.00,0000,Weather View 32 v70,2013-02-15 11:00:00,
2013-02-15 06:05:00,36.1,29.9,29.55,East,90,7.0,15.0,78,0.00,,,0.00,0000,Weather View 32 v70,2013-02-15 11:05:00,
2013-02-15 06:10:00,36.1,30.2,29.56,East,84,6.0,15.0,79,0.00,,,0.00,0000,Weather View 32 v70,2013-02-15 11:10:00,
2013-02-15 06:15:00,36.3,30.0,29.55,East,90,7.0,15.0,78,0.00,,,0.00,0000,Weather View 32 v70,2013-02-15 11:15:00,
2013-02-15 06:20:00,36.1,30.2,29.55,East,90,4.0,15.0,79,0.00,,,0.00,0000,Weather View 32 v70,2013-02-15 11:20:00,
2013-02-15 06:25:00,36.1,30.2,29.55,East,90,6.0,15.0,79,0.00,,,0.00,0000,Weather View 32 v70,2013-02-15 11:25:00,
2013-02-15 06:30:00,35.9,30.3,29.55,East,90,7.0,15.0,80,0.00,,,0.00,0000,Weather View 32 v70,2013-02-15 11:30:00,
2013-02-15 06:35:00,35.9,30.0,29.54,East,90,7.0,15.0,79,0.00,,,0.00,0000,Weather View 32 v70,2013-02-15 11:35:00,
2013-02-15 06:40:00,36.0,30.4,29.54,East,96,5.0,15.0,80,0.00,,,0.00,0000,Weather View 32 v70,2013-02-15 11:40:00,
2013-02-15 06:45:00,35.9,30.3,29.55,East,84,5.0,15.0,80,0.00,,,0.00,0000,Weather View 32 v70,2013-02-15 11:45:00,
2013-02-15 06:50:00,36.1,30.6,29.55,East,96,6.0,13.0,80,0.00,,,0.00,0000,Weather View 32 v70,2013-02-15 11:50:00,
2013-02-15 06:55:00,35.9,30.3,29.55,East,90,6.0,13.0,80,0.00,,,0.00,0008,Weather View 32 v70,2013-02-15 11:55:00,
2013-02-15 07:00:00,36.0,30.4,29.54,East,90,6.0,12.0,80,0.00,,,0.00,0016,Weather View 32 v70,2013-02-15 12:00:00,
2013-02-15 07:05:00,36.0,30.4,29.56,East,90,7.0,12.0,80,0.00,,,0.00,0024,Weather View 32 v70,2013-02-15 12:05:00,
2013-02-15 07:10:00,36.1,30.6,29.55,East,90,4.0,12.0,80,0.00,,,0.00,0040,Weather View 32 v70,2013-02-15 12:10:00,
2013-02-15 07:15:00,36.4,30.8,29.56,East,90,7.0,12.0,80,0.00,,,0.00,0064,Weather View 32 v70,2013-02-15 12:15:00,
2013-02-15 07:20:00,36.6,31.0,29.56,East,96,3.0,12.0,80,0.00,,,0.00,0080,Weather View 32 v70,2013-02-15 12:20:00,
2013-02-15 07:25:00,36.8,31.2,29.56,East,90,5.0,11.0,80,0.00,,,0.00,0104,Weather View 32 v70,2013-02-15 12:25:00,
2013-02-15 07:30:00,37.2,31.2,29.55,East,90,4.0,10.0,79,0.00,,,0.00,0120,Weather View 32 v70,2013-02-15 12:30:00,
2013-02-15 07:35:00,37.7,31.5,29.56,East,90,3.0,10.0,78,0.00,,,0.00,0136,Weather View 32 v70,2013-02-15 12:35:00,
2013-02-15 07:40:00,37.9,31.4,29.56,East,90,3.0,10.0,77,0.00,,,0.00,0152,Weather View 32 v70,2013-02-15 12:40:00,
2013-02-15 07:45:00,38.6,31.7,29.56,East,90,5.0,10.0,76,0.00,,,0.00,0160,Weather View 32 v70,2013-02-15 12:45:00,
2013-02-15 07:50:00,38.3,31.4,29.56,East,90,5.0,9.0,76,0.00,,,0.00,0176,Weather View 32 v70,2013-02-15 12:50:00,
2013-02-15 07:55:00,38.8,31.9,29.56,East,90,5.0,9.0,76,0.00,,,0.00,0192,Weather View 32 v70,2013-02-15 12:55:00,
2013-02-15 08:00:00,39.2,31.6,29.55,East,96,4.0,9.0,74,0.00,,,0.00,0208,Weather View 32 v70,2013-02-15 13:00:00,
2013-02-15 08:05:00,38.8,31.2,29.56,East,84,5.0,9.0,74,0.00,,,0.00,0224,Weather View 32 v70,2013-02-15 13:05:00,
2013-02-15 08:10:00,39.4,31.8,29.55,East,96,3.0,9.0,74,0.00,,,0.00,0248,Weather View 32 v70,2013-02-15 13:10:00,
2013-02-15 08:15:00,39.5,31.9,29.56,East,96,2.0,10.0,74,0.00,,,0.00,0264,Weather View 32 v70,2013-02-15 13:15:00,
2013-02-15 08:20:00,40.0,32.3,29.56,East,96,3.0,10.0,74,0.00,,,0.00,0280,Weather View 32 v70,2013-02-15 13:20:00,
2013-02-15 08:25:00,39.4,31.8,29.56,East,90,4.0,10.0,74,0.00,,,0.00,0280,Weather View 32 v70,2013-02-15 13:25:00,
2013-02-15 08:30:00,39.6,31.7,29.56,East,90,6.0,10.0,73,0.00,,,0.00,0296,Weather View 32 v70,2013-02-15 13:30:00,
2013-02-15 08:35:00,39.4,31.1,29.56,East,90,6.0,10.0,72,0.00,,,0.00,0296,Weather View 32 v70,2013-02-15 13:35:00,
2013-02-15 08:40:00,40.6,32.3,29.56,East,90,3.0,10.0,72,0.00,,,0.00,0352,Weather View 32 v70,2013-02-15 13:40:00,
2013-02-15 08:45:00,40.9,32.2,29.56,East,90,4.0,10.0,71,0.00,,,0.00,0312,Weather View 32 v70,2013-02-15 13:45:00,
2013-02-15 08:50:00,41.1,32.0,29.56,East,90,3.0,10.0,70,0.00,,,0.00,0280,Weather View 32 v70,2013-02-15 13:50:00,
2013-02-15 08:55:00,39.5,30.9,29.56,East,90,5.0,10.0,71,0.00,,,0.00,0288,Weather View 32 v70,2013-02-15 13:55:00,
2013-02-15 09:00:00,41.1,32.7,29.56,East,90,2.0,10.0,72,0.00,,,0.00,0368,Weather View 32 v70,2013-02-15 14:00:00,
2013-02-15 09:05:00,42.1,31.9,29.56,East,96,5.0,10.0,67,0.00,,,0.00,0416,Weather View 32 v70,2013-02-15 14:05:00,
2013-02-15 09:10:00,41.8,32.3,29.56,East,90,2.0,10.0,69,0.00,,,0.00,0432,Weather View 32 v70,2013-02-15 14:10:00,
2013-02-15 09:15:00,42.6,32.3,29.54,East,90,3.0,10.0,67,0.00,,,0.00,0472,Weather View 32 v70,2013-02-15 14:15:00,
2013-02-15 09:20:00,41.3,31.9,29.55,East,90,7.0,10.0,69,0.00,,,0.00,0464,Weather View 32 v70,2013-02-15 14:20:00,
2013-02-15 09:25:00,42.6,33.1,29.55,East,90,3.0,10.0,69,0.00,,,0.00,0472,Weather View 32 v70,2013-02-15 14:25:00,
2013-02-15 09:30:00,43.8,32.8,29.55,East,90,5.0,10.0,65,0.00,,,0.00,0472,Weather View 32 v70,2013-02-15 14:30:00,
2013-02-15 09:35:00,42.4,31.1,29.55,East,96,3.0,10.0,64,0.00,,,0.00,0512,Weather View 32 v70,2013-02-15 14:35:00,
2013-02-15 09:41:00,43.2,31.5,29.54,East,90,3.0,10.0,63,0.00,,,0.00,0504,Weather View 32 v70,2013-02-15 14:41:00,
2013-02-15 09:46:00,43.6,31.8,29.54,East,96,6.0,10.0,63,0.00,,,0.00,0520,Weather View 32 v70,2013-02-15 14:46:00,
2013-02-15 09:51:00,45.9,32.8,29.54,East,96,3.0,10.0,60,0.00,,,0.00,0520,Weather View 32 v70,2013-02-15 14:51:00,
2013-02-15 09:56:00,44.2,31.2,29.54,East,90,5.0,10.0,60,0.00,,,0.00,0520,Weather View 32 v70,2013-02-15 14:56:00,
2013-02-15 10:01:00,43.6,31.0,29.54,East,90,5.0,9.0,61,0.00,,,0.00,0528,Weather View 32 v70,2013-02-15 15:01:00,
2013-02-15 10:06:00,44.7,32.0,29.54,East,90,3.0,9.0,61,0.00,,,0.00,0528,Weather View 32 v70,2013-02-15 15:06:00,
2013-02-15 10:11:00,45.6,32.1,29.54,East,90,4.0,9.0,59,0.00,,,0.00,0536,Weather View 32 v70,2013-02-15 15:11:00,
2013-02-15 10:16:00,46.6,32.2,29.55,East,90,2.0,9.0,57,0.00,,,0.00,0544,Weather View 32 v70,2013-02-15 15:16:00,
2013-02-15 10:21:00,44.7,30.8,29.54,East,90,5.0,9.0,58,0.00,,,0.00,0544,Weather View 32 v70,2013-02-15 15:21:00,
2013-02-15 10:26:00,46.2,33.4,29.54,East,90,1.0,9.0,61,0.00,,,0.00,0560,Weather View 32 v70,2013-02-15 15:26:00,
2013-02-15 10:31:00,47.8,33.7,29.54,East,90,2.0,9.0,58,0.00,,,0.00,0560,Weather View 32 v70,2013-02-15 15:31:00,
2013-02-15 10:36:00,46.3,32.3,29.54,East,90,4.0,9.0,58,0.00,,,0.00,0560,Weather View 32 v70,2013-02-15 15:36:00,
2013-02-15 10:41:00,47.2,33.1,29.54,East,90,4.0,9.0,58,0.00,,,0.00,0568,Weather View 32 v70,2013-02-15 15:41:00,
2013-02-15 10:46:00,46.7,31.8,29.54,East,90,3.0,10.0,56,0.00,,,0.00,0576,Weather View 32 v70,2013-02-15 15:46:00,
2013-02-15 10:51:00,45.7,31.7,29.54,East,84,3.0,10.0,58,0.00,,,0.00,0584,Weather View 32 v70,2013-02-15 15:51:00,
2013-02-15 10:56:00,48.4,33.4,29.54,East,90,4.0,10.0,56,0.00,,,0.00,0592,Weather View 32 v70,2013-02-15 15:56:00,
2013-02-15 11:01:00,47.7,32.8,29.54,East,90,4.0,10.0,56,0.00,,,0.00,0592,Weather View 32 v70,2013-02-15 16:01:00,
2013-02-15 11:06:00,47.2,32.7,29.53,East,96,4.0,10.0,57,0.00,,,0.00,0592,Weather View 32 v70,2013-02-15 16:06:00,
2013-02-15 11:11:00,46.9,31.1,29.54,East,96,4.0,10.0,54,0.00,,,0.00,0600,Weather View 32 v70,2013-02-15 16:11:00,
2013-02-15 11:16:00,47.1,33.0,29.53,East,90,7.0,10.0,58,0.00,,,0.00,0592,Weather View 32 v70,2013-02-15 16:16:00,
2013-02-15 11:21:00,45.8,33.1,29.53,East,79,10.0,13.0,61,0.00,,,0.00,0600,Weather View 32 v70,2013-02-15 16:21:00,
2013-02-15 11:26:00,44.5,31.8,29.53,ENE,73,12.0,15.0,61,0.00,,,0.00,0600,Weather View 32 v70,2013-02-15 16:26:00,
2013-02-15 11:31:00,44.7,32.0,29.53,East,84,5.0,15.0,61,0.00,,,0.00,0600,Weather View 32 v70,2013-02-15 16:31:00,
2013-02-15 11:36:00,46.6,33.0,29.53,East,84,4.0,15.0,59,0.00,,,0.00,0608,Weather View 32 v70,2013-02-15 16:36:00,
2013-02-15 11:41:00,48.1,33.1,29.53,East,84,4.0,15.0,56,0.00,,,0.00,0616,Weather View 32 v70,2013-02-15 16:41:00,
2013-02-15 11:46:00,48.5,32.1,29.53,East,90,5.0,15.0,53,0.00,,,0.00,0616,Weather View 32 v70,2013-02-15 16:46:00,
2013-02-15 11:51:00,48.6,31.3,29.52,East,84,5.0,15.0,51,0.00,,,0.00,0616,Weather View 32 v70,2013-02-15 16:51:00,
2013-02-15 11:56:00,47.6,30.8,29.52,East,79,10.0,15.0,52,0.00,,,0.00,0616,Weather View 32 v70,2013-02-15 16:56:00,
2013-02-15 12:01:00,48.4,31.6,29.51,East,84,10.0,15.0,52,0.00,,,0.00,0624,Weather View 32 v70,2013-02-15 17:01:00,
2013-02-15 12:06:00,48.9,31.0,29.51,East,79,9.0,15.0,50,0.00,,,0.00,0608,Weather View 32 v70,2013-02-15 17:06:00,
2013-02-15 12:12:00,50.2,32.7,29.52,East,79,10.0,15.0,51,0.00,,,0.00,0616,Weather View 32 v70,2013-02-15 17:12:00,
2013-02-15 12:17:00,49.2,31.8,29.50,East,90,6.0,15.0,51,0.00,,,0.00,0608,Weather View 32 v70,2013-02-15 17:17:00,
2013-02-15 12:22:00,47.1,31.7,29.50,East,84,11.0,15.0,55,0.00,,,0.00,0608,Weather View 32 v70,2013-02-15 17:22:00,
2013-02-15 12:26:00,47.6,32.7,29.50,East,90,3.0,15.0,56,0.00,,,0.00,0608,Weather View 32 v70,2013-02-15 17:26:00,
2013-02-15 12:32:00,49.6,32.7,29.50,East,90,6.0,14.0,52,0.00,,,0.00,0608,Weather View 32 v70,2013-02-15 17:32:00,
2013-02-15 12:37:00,47.6,31.3,29.50,East,84,6.0,14.0,53,0.00,,,0.00,0608,Weather View 32 v70,2013-02-15 17:37:00,
2013-02-15 12:42:00,50.1,32.6,29.49,East,90,5.0,14.0,51,0.00,,,0.00,0600,Weather View 32 v70,2013-02-15 17:42:00,
2013-02-15 12:47:00,52.6,32.9,29.50,East,79,5.0,14.0,47,0.00,,,0.00,0608,Weather View 32 v70,2013-02-15 17:47:00,
2013-02-15 12:52:00,51.9,30.0,29.48,East,84,10.0,14.0,43,0.00,,,0.00,0592,Weather View 32 v70,2013-02-15 17:52:00,
2013-02-15 12:57:00,52.0,30.2,29.49,East,90,3.0,14.0,43,0.00,,,0.00,0600,Weather View 32 v70,2013-02-15 17:57:00,
2013-02-15 13:02:00,51.9,28.3,29.47,East,90,8.0,15.0,40,0.00,,,0.00,0592,Weather View 32 v70,2013-02-15 18:02:00,
2013-02-15 13:07:00,51.8,28.2,29.48,East,90,5.0,19.0,40,0.00,,,0.00,0584,Weather View 32 v70,2013-02-15 18:07:00,
2013-02-15 13:12:00,51.6,28.0,29.48,East,96,9.0,19.0,40,0.00,,,0.00,0576,Weather View 32 v70,2013-02-15 18:12:00,
2013-02-15 13:17:00,53.1,29.4,29.47,East,101,7.0,19.0,40,0.00,,,0.00,0568,Weather View 32 v70,2013-02-15 18:17:00,
2013-02-15 13:22:00,52.0,28.4,29.48,East,90,6.0,19.0,40,0.00,,,0.00,0560,Weather View 32 v70,2013-02-15 18:22:00,
2013-02-15 13:27:00,52.8,29.1,29.47,East,90,8.0,19.0,40,0.00,,,0.00,0560,Weather View 32 v70,2013-02-15 18:27:00,
2013-02-15 13:32:00,52.9,29.2,29.48,East,96,6.0,19.0,40,0.00,,,0.00,0560,Weather View 32 v70,2013-02-15 18:32:00,
2013-02-15 13:37:00,52.6,28.9,29.47,East,96,9.0,19.0,40,0.00,,,0.00,0552,Weather View 32 v70,2013-02-15 18:37:00,
2013-02-15 13:42:00,52.3,28.7,29.48,East,90,16.0,20.0,40,0.00,,,0.00,0544,Weather View 32 v70,2013-02-15 18:42:00,
2013-02-15 13:47:00,52.7,29.0,29.47,East,84,9.0,20.0,40,0.00,,,0.00,0536,Weather View 32 v70,2013-02-15 18:47:00,
2013-02-15 13:52:00,51.7,28.1,29.47,East,84,16.0,21.0,40,0.00,,,0.00,0520,Weather View 32 v70,2013-02-15 18:52:00,
2013-02-15 13:57:00,52.5,29.4,29.47,East,90,4.0,21.0,41,0.00,,,0.00,0512,Weather View 32 v70,2013-02-15 18:57:00,
2013-02-15 14:02:00,52.8,29.1,29.47,East,90,3.0,21.0,40,0.00,,,0.00,0504,Weather View 32 v70,2013-02-15 19:02:00,
2013-02-15 14:07:00,52.0,28.4,29.47,East,84,8.0,21.0,40,0.00,,,0.00,0488,Weather View 32 v70,2013-02-15 19:07:00,
2013-02-15 14:12:00,52.8,29.7,29.47,East,84,6.0,21.0,41,0.00,,,0.00,0480,Weather View 32 v70,2013-02-15 19:12:00,
2013-02-15 14:17:00,51.7,29.3,29.47,East,84,6.0,21.0,42,0.00,,,0.00,0464,Weather View 32 v70,2013-02-15 19:17:00,
2013-02-15 14:22:00,51.9,30.0,29.46,East,96,6.0,21.0,43,0.00,,,0.00,0456,Weather View 32 v70,2013-02-15 19:22:00,
2013-02-15 14:27:00,52.8,30.3,29.47,East,90,3.0,21.0,42,0.00,,,0.00,0448,Weather View 32 v70,2013-02-15 19:27:00,
2013-02-15 14:32:00,53.5,30.3,29.46,East,96,3.0,21.0,41,0.00,,,0.00,0432,Weather View 32 v70,2013-02-15 19:32:00,
2013-02-15 14:37:00,53.9,30.7,29.46,East,90,3.0,21.0,41,0.00,,,0.00,0432,Weather View 32 v70,2013-02-15 19:37:00,
2013-02-15 14:42:00,52.5,30.0,29.46,East,90,12.0,21.0,42,0.00,,,0.00,0424,Weather View 32 v70,2013-02-15 19:42:00,
2013-02-15 14:47:00,52.6,30.1,29.46,East,96,3.0,21.0,42,0.00,,,0.00,0096,Weather View 32 v70,2013-02-15 19:47:00,
2013-02-15 14:52:00,52.2,29.2,29.46,East,96,8.0,19.0,41,0.00,,,0.00,0192,Weather View 32 v70,2013-02-15 19:52:00,
2013-02-15 14:57:00,52.9,30.4,29.46,East,90,3.0,17.0,42,0.00,,,0.00,0408,Weather View 32 v70,2013-02-15 19:57:00,
2013-02-15 15:02:00,52.7,29.6,29.46,East,90,8.0,17.0,41,0.00,,,0.00,0352,Weather View 32 v70,2013-02-15 20:02:00,
2013-02-15 15:07:00,53.6,29.8,29.46,East,90,5.0,17.0,40,0.00,,,0.00,0344,Weather View 32 v70,2013-02-15 20:07:00,
2013-02-15 15:12:00,53.2,30.1,29.46,East,90,5.0,17.0,41,0.00,,,0.00,0328,Weather View 32 v70,2013-02-15 20:12:00,
2013-02-15 15:17:00,52.1,30.8,29.45,East,90,7.0,16.0,44,0.00,,,0.00,0320,Weather View 32 v70,2013-02-15 20:17:00,
2013-02-15 15:22:00,52.7,30.8,29.45,East,90,9.0,16.0,43,0.00,,,0.00,0312,Weather View 32 v70,2013-02-15 20:22:00,
2013-02-15 15:27:00,51.7,31.0,29.45,East,84,11.0,16.0,45,0.00,,,0.00,0264,Weather View 32 v70,2013-02-15 20:27:00,
2013-02-15 15:32:00,50.8,30.7,29.45,East,84,8.0,16.0,46,0.00,,,0.00,0104,Weather View 32 v70,2013-02-15 20:32:00,
2013-02-15 15:37:00,51.6,31.4,29.46,East,84,9.0,16.0,46,0.00,,,0.00,0152,Weather View 32 v70,2013-02-15 20:37:00,
2013-02-15 15:42:00,50.8,31.7,29.46,East,79,10.0,17.0,48,0.00,,,0.00,0112,Weather View 32 v70,2013-02-15 20:42:00,
2013-02-15 15:47:00,50.9,31.8,29.46,East,84,6.0,17.0,48,0.00,,,0.00,0184,Weather View 32 v70,2013-02-15 20:47:00,
2013-02-15 15:52:00,50.2,32.2,29.45,ENE,68,12.0,17.0,50,0.00,,,0.00,0064,Weather View 32 v70,2013-02-15 20:52:00,
2013-02-15 15:57:00,50.3,33.3,29.46,East,84,10.0,17.0,52,0.00,,,0.00,0216,Weather View 32 v70,2013-02-15 20:57:00,
2013-02-15 16:02:00,50.7,33.6,29.46,East,84,6.0,17.0,52,0.00,,,0.00,0240,Weather View 32 v70,2013-02-15 21:02:00,
2013-02-15 16:07:00,50.1,33.6,29.46,East,79,10.0,17.0,53,0.00,,,0.00,0200,Weather View 32 v70,2013-02-15 21:07:00,
2013-02-15 16:12:00,49.4,33.4,29.46,East,84,7.0,17.0,54,0.00,,,0.00,0048,Weather View 32 v70,2013-02-15 21:12:00,
2013-02-15 16:17:00,49.5,34.4,29.46,East,84,9.0,17.0,56,0.00,,,0.00,0192,Weather View 32 v70,2013-02-15 21:17:00,
2013-02-15 16:22:00,48.7,34.6,29.46,ENE,73,12.0,17.0,58,0.00,,,0.00,0056,Weather View 32 v70,2013-02-15 21:22:00,
2013-02-15 16:27:00,48.5,34.8,29.46,East,79,10.0,17.0,59,0.00,,,0.00,0072,Weather View 32 v70,2013-02-15 21:27:00,
2013-02-15 16:32:00,48.5,35.6,29.46,East,79,10.0,17.0,61,0.00,,,0.00,0120,Weather View 32 v70,2013-02-15 21:32:00,
2013-02-15 16:37:00,48.3,35.4,29.46,ENE,73,12.0,17.0,61,0.00,,,0.00,0104,Weather View 32 v70,2013-02-15 21:37:00,
2013-02-15 16:42:00,47.8,35.4,29.47,East,90,8.0,17.0,62,0.00,,,0.00,0040,Weather View 32 v70,2013-02-15 21:42:00,
2013-02-15 16:47:00,47.6,35.6,29.47,East,79,10.0,17.0,63,0.00,,,0.00,0032,Weather View 32 v70,2013-02-15 21:47:00,
2013-02-15 16:52:00,47.4,35.4,29.47,East,84,10.0,17.0,63,0.00,,,0.00,0024,Weather View 32 v70,2013-02-15 21:52:00,
2013-02-15 16:57:00,47.4,35.8,29.47,East,84,10.0,17.0,64,0.00,,,0.00,0048,Weather View 32 v70,2013-02-15 21:57:00,
2013-02-15 17:02:00,46.9,35.8,29.47,East,84,8.0,16.0,65,0.00,,,0.00,0024,Weather View 32 v70,2013-02-15 22:02:00,
2013-02-15 17:07:00,46.9,35.8,29.47,East,79,9.0,16.0,65,0.00,,,0.00,0016,Weather View 32 v70,2013-02-15 22:07:00,
2013-02-15 17:12:00,46.7,35.5,29.47,East,84,8.0,16.0,65,0.00,,,0.00,0008,Weather View 32 v70,2013-02-15 22:12:00,
2013-02-15 17:17:00,46.9,36.1,29.47,East,84,9.0,16.0,66,0.00,,,0.00,0008,Weather View 32 v70,2013-02-15 22:17:00,
2013-02-15 17:22:00,46.7,35.9,29.48,East,84,9.0,16.0,66,0.00,,,0.00,0000,Weather View 32 v70,2013-02-15 22:22:00,
2013-02-15 17:27:00,46.6,35.8,29.48,East,84,9.0,16.0,66,0.00,,,0.00,0000,Weather View 32 v70,2013-02-15 22:27:00,
2013-02-15 17:32:00,46.5,36.1,29.47,East,84,7.0,16.0,67,0.00,,,0.00,0000,Weather View 32 v70,2013-02-15 22:32:00,
2013-02-15 17:37:00,46.4,36.0,29.48,East,84,8.0,16.0,67,0.00,,,0.00,0000,Weather View 32 v70,2013-02-15 22:37:00,
2013-02-15 17:42:00,46.0,36.0,29.48,East,84,6.0,16.0,68,0.00,,,0.00,0000,Weather View 32 v70,2013-02-15 22:42:00,
2013-02-15 17:47:00,45.7,36.1,29.48,East,84,10.0,16.0,69,0.00,,,0.00,0000,Weather View 32 v70,2013-02-15 22:47:00,
2013-02-15 17:52:00,45.5,35.9,29.47,ENE,73,9.0,16.0,69,0.00,,,0.00,0000,Weather View 32 v70,2013-02-15 22:52:00,
2013-02-15 17:57:00,45.3,36.0,29.48,East,79,7.0,16.0,70,0.00,,,0.00,0000,Weather View 32 v70,2013-02-15 22:57:00,
2013-02-15 18:02:00,45.3,36.4,29.48,East,90,8.0,16.0,71,0.00,,,0.00,0000,Weather View 32 v70,2013-02-15 23:02:00,
2013-02-15 18:07:00,45.1,36.3,29.47,East,84,10.0,16.0,71,0.00,,,0.00,0000,Weather View 32 v70,2013-02-15 23:07:00,
2013-02-15 18:12:00,44.9,36.4,29.48,East,84,10.0,16.0,72,0.00,,,0.00,0000,Weather View 32 v70,2013-02-15 23:12:00,
2013-02-15 18:17:00,45.0,36.5,29.48,East,84,5.0,16.0,72,0.00,,,0.00,0000,Weather View 32 v70,2013-02-15 23:17:00,
2013-02-15 18:22:00,44.9,36.4,29.48,East,84,7.0,16.0,72,0.00,,,0.00,0000,Weather View 32 v70,2013-02-15 23:22:00,
2013-02-15 18:27:00,44.8,36.3,29.48,East,96,5.0,15.0,72,0.00,,,0.00,0000,Weather View 32 v70,2013-02-15 23:27:00,
2013-02-15 18:32:00,44.9,36.4,29.48,East,90,4.0,15.0,72,0.00,,,0.00,0000,Weather View 32 v70,2013-02-15 23:32:00,
2013-02-15 18:37:00,45.0,36.2,29.48,East,84,7.0,15.0,71,0.00,,,0.00,0000,Weather View 32 v70,2013-02-15 23:37:00,
2013-02-15 18:42:00,44.8,36.7,29.48,East,84,9.0,15.0,73,0.00,,,0.00,0000,Weather View 32 v70,2013-02-15 23:42:00,
2013-02-15 18:47:00,44.7,36.5,29.48,East,90,7.0,15.0,73,0.00,,,0.00,0000,Weather View 32 v70,2013-02-15 23:47:00,
2013-02-15 18:52:00,44.6,36.8,29.48,East,90,3.0,14.0,74,0.00,,,0.00,0000,Weather View 32 v70,2013-02-15 23:52:00,
2013-02-15 18:57:00,44.6,36.8,29.47,East,90,5.0,13.0,74,0.00,,,0.00,0000,Weather View 32 v70,2013-02-15 23:57:00,
2013-02-15 19:02:00,44.4,36.6,29.47,East,90,4.0,13.0,74,0.00,,,0.00,0000,Weather View 32 v70,2013-02-16 00:02:00,
2013-02-15 19:07:00,44.4,36.6,29.47,East,90,3.0,13.0,74,0.00,,,0.00,0000,Weather View 32 v70,2013-02-16 00:07:00,
2013-02-15 19:12:00,44.0,36.2,29.48,East,90,3.0,12.0,74,0.00,,,0.00,0000,Weather View 32 v70,2013-02-16 00:12:00,
2013-02-15 19:17:00,44.6,36.4,29.48,East,90,5.0,12.0,73,0.00,,,0.00,0000,Weather View 32 v70,2013-02-16 00:17:00,
2013-02-15 19:22:00,44.4,36.9,29.48,East,84,8.0,12.0,75,0.00,,,0.00,0000,Weather View 32 v70,2013-02-16 00:22:00,
2013-02-15 19:27:00,44.0,36.6,29.48,East,90,6.0,10.0,75,0.00,,,0.00,0000,Weather View 32 v70,2013-02-16 00:27:00,
2013-02-15 19:32:00,44.0,36.9,29.47,East,90,4.0,10.0,76,0.00,,,0.00,0000,Weather View 32 v70,2013-02-16 00:32:00,
2013-02-15 19:37:00,43.9,36.8,29.47,East,90,7.0,10.0,76,0.00,,,0.00,0000,Weather View 32 v70,2013-02-16 00:37:00,
2013-02-15 19:42:00,43.8,36.7,29.47,East,90,6.0,10.0,76,0.00,,,0.00,0000,Weather View 32 v70,2013-02-16 00:42:00,
2013-02-15 19:47:00,43.8,36.7,29.47,East,90,5.0,9.0,76,0.00,,,0.00,0000,Weather View 32 v70,2013-02-16 00:47:00,
2013-02-15 19:52:00,43.9,36.8,29.48,East,90,6.0,9.0,76,0.00,,,0.00,0000,Weather View 32 v70,2013-02-16 00:52:00,
2013-02-15 19:57:00,43.9,36.8,29.48,East,90,5.0,9.0,76,0.00,,,0.00,0000,Weather View 32 v70,2013-02-16 00:57:00,
2013-02-15 20:02:00,43.2,36.8,29.48,East,90,5.0,9.0,78,0.00,,,0.00,0000,Weather View 32 v70,2013-02-16 01:02:00,
2013-02-15 20:07:00,42.8,36.7,29.49,East,90,1.0,9.0,79,0.00,,,0.00,0000,Weather View 32 v70,2013-02-16 01:07:00,
2013-02-15 20:12:00,42.8,36.7,29.49,East,96,3.0,9.0,79,0.00,,,0.00,0000,Weather View 32 v70,2013-02-16 01:12:00,
2013-02-15 20:17:00,42.6,36.5,29.49,East,90,5.0,9.0,79,0.00,,,0.00,0000,Weather View 32 v70,2013-02-16 01:17:00,
2013-02-15 20:22:00,42.0,36.3,29.49,East,90,3.0,9.0,80,0.00,,,0.00,0000,Weather View 32 v70,2013-02-16 01:22:00,
2013-02-15 20:27:00,41.9,36.5,29.49,East,90,3.0,9.0,81,0.00,,,0.00,0000,Weather View 32 v70,2013-02-16 01:27:00,
2013-02-15 20:32:00,41.8,36.3,29.49,East,90,4.0,9.0,81,0.00,,,0.00,0000,Weather View 32 v70,2013-02-16 01:32:00,
2013-02-15 20:37:00,42.0,36.3,29.49,East,90,3.0,9.0,80,0.00,,,0.00,0000,Weather View 32 v70,2013-02-16 01:37:00,
2013-02-15 20:42:00,42.4,36.0,29.49,East,96,3.0,9.0,78,0.00,,,0.00,0000,Weather View 32 v70,2013-02-16 01:42:00,
2013-02-15 20:47:00,42.3,36.3,29.49,East,90,5.0,8.0,79,0.00,,,0.00,0000,Weather View 32 v70,2013-02-16 01:47:00,
2013-02-15 20:52:00,42.2,36.1,29.49,East,96,2.0,8.0,79,0.00,,,0.00,0000,Weather View 32 v70,2013-02-16 01:52:00,
2013-02-15 20:57:00,42.3,35.9,29.49,East,96,3.0,8.0,78,0.00,,,0.00,0000,Weather View 32 v70,2013-02-16 01:57:00,
2013-02-15 21:02:00,42.4,36.4,29.49,East,96,2.0,8.0,79,0.00,,,0.00,0000,Weather View 32 v70,2013-02-16 02:02:00,
2013-02-15 21:07:00,42.7,36.3,29.49,East,90,2.0,5.0,78,0.00,,,0.00,0000,Weather View 32 v70,2013-02-16 02:07:00,
2013-02-15 21:12:00,42.4,36.4,29.49,East,96,2.0,5.0,79,0.00,,,0.00,0000,Weather View 32 v70,2013-02-16 02:12:00,
2013-02-15 21:17:00,42.8,36.7,29.49,East,96,2.0,5.0,79,0.00,,,0.00,0000,Weather View 32 v70,2013-02-16 02:17:00,
2013-02-15 21:22:00,42.7,35.9,29.50,East,96,0.0,5.0,77,0.00,,,0.00,0000,Weather View 32 v70,2013-02-16 02:22:00,
2013-02-15 21:27:00,42.3,35.9,29.49,East,96,1.0,5.0,78,0.00,,,0.00,0000,Weather View 32 v70,2013-02-16 02:27:00,
2013-02-15 21:32:00,42.2,36.1,29.49,East,96,2.0,5.0,79,0.00,,,0.00,0000,Weather View 32 v70,2013-02-16 02:32:00,
2013-02-15 21:37:00,42.2,36.1,29.49,East,96,2.0,5.0,79,0.00,,,0.00,0000,Weather View 32 v70,2013-02-16 02:37:00,
2013-02-15 21:42:00,42.3,36.3,29.49,East,96,2.0,5.0,79,0.00,,,0.00,0000,Weather View 32 v70,2013-02-16 02:42:00,
2013-02-15 21:47:00,43.9,33.3,29.49,East,90,3.0,5.0,66,0.00,,,0.00,0000,Weather View 32 v70,2013-02-16 02:47:00,
2013-02-15 21:52:00,44.4,34.1,29.50,East,96,0.0,5.0,67,0.00,,,0.00,0000,Weather View 32 v70,2013-02-16 02:52:00,
2013-02-15 21:57:00,44.0,33.4,29.49,East,90,3.0,5.0,66,0.00,,,0.00,0000,Weather View 32 v70,2013-02-16 02:57:00,
2013-02-15 22:02:00,44.4,33.7,29.49,East,96,3.0,4.0,66,0.00,,,0.00,0000,Weather View 32 v70,2013-02-16 03:02:00,
2013-02-15 22:07:00,44.7,32.8,29.49,East,96,3.0,4.0,63,0.00,,,0.00,0000,Weather View 32 v70,2013-02-16 03:07:00,
2013-02-15 22:12:00,44.0,33.4,29.50,East,96,5.0,5.0,66,0.00,,,0.00,0000,Weather View 32 v70,2013-02-16 03:12:00,
2013-02-15 22:17:00,43.9,33.3,29.50,East,90,2.0,6.0,66,0.00,,,0.00,0000,Weather View 32 v70,2013-02-16 03:17:00,
2013-02-15 22:22:00,44.4,32.5,29.50,East,96,2.0,6.0,63,0.00,,,0.00,0000,Weather View 32 v70,2013-02-16 03:22:00,
2013-02-15 22:27:00,44.4,34.1,29.50,East,96,3.0,7.0,67,0.00,,,0.00,0000,Weather View 32 v70,2013-02-16 03:27:00,
2013-02-15 22:32:00,44.0,31.0,29.49,East,96,2.0,7.0,60,0.00,,,0.00,0000,Weather View 32 v70,2013-02-16 03:32:00,
2013-02-15 22:37:00,44.0,29.3,29.49,East,90,4.0,7.0,56,0.00,,,0.00,0000,Weather View 32 v70,2013-02-16 03:37:00,
2013-02-15 22:42:00,44.0,27.9,29.49,East,96,5.0,8.0,53,0.00,,,0.00,0000,Weather View 32 v70,2013-02-16 03:42:00,
2013-02-15 22:47:00,44.0,30.6,29.49,East,96,6.0,8.0,59,0.00,,,0.00,0000,Weather View 32 v70,2013-02-16 03:47:00,
2013-02-15 22:52:00,43.1,28.9,29.50,East,96,8.0,10.0,57,0.00,,,0.00,0000,Weather View 32 v70,2013-02-16 03:52:00,
2013-02-15 22:57:00,42.0,30.7,29.51,East,101,9.0,16.0,64,0.00,,,0.00,0000,Weather View 32 v70,2013-02-16 03:57:00,
2013-02-15 23:02:00,41.3,30.8,29.51,East,96,10.0,17.0,66,0.00,,,0.00,0000,Weather View 32 v70,2013-02-16 04:02:00,
2013-02-15 23:07:00,41.0,30.1,29.51,East,101,5.0,17.0,65,0.00,,,0.00,0000,Weather View 32 v70,2013-02-16 04:07:00,
2013-02-15 23:12:00,41.0,28.9,29.51,East,101,6.0,17.0,62,0.00,,,0.00,0000,Weather View 32 v70,2013-02-16 04:12:00,
2013-02-15 23:17:00,40.9,28.8,29.51,ESE,107,11.0,17.0,62,0.00,,,0.00,0000,Weather View 32 v70,2013-02-16 04:17:00,
2013-02-15 23:22:00,40.6,28.6,29.52,East,101,7.0,17.0,62,0.00,,,0.00,0000,Weather View 32 v70,2013-02-16 04:22:00,
2013-02-15 23:27:00,40.4,29.6,29.51,East,96,4.0,17.0,65,0.00,,,0.00,0000,Weather View 32 v70,2013-02-16 04:27:00,
2013-02-15 23:32:00,39.9,30.5,29.52,ESE,107,9.0,17.0,69,0.00,,,0.00,0000,Weather View 32 v70,2013-02-16 04:32:00,
2013-02-15 23:37:00,39.7,32.1,29.52,East,96,6.0,19.0,74,0.00,,,0.00,0000,Weather View 32 v70,2013-02-16 04:37:00,
2013-02-15 23:42:00,39.2,31.6,29.51,East,101,4.0,19.0,74,0.00,,,0.00,0000,Weather View 32 v70,2013-02-16 04:42:00,
2013-02-15 23:47:00,39.0,31.7,29.51,East,96,9.0,19.0,75,0.00,,,0.00,0000,Weather View 32 v70,2013-02-16 04:47:00,
2013-02-15 23:52:00,38.7,32.4,29.52,East,96,5.0,19.0,78,0.00,,,0.00,0000,Weather View 32 v70,2013-02-16 04:52:00,
2013-02-15 23:57:00,38.3,32.0,29.52,East,96,6.0,19.0,78,0.00,,,0.00,0000,Weather View 32 v70,2013-02-16 04:57:00,